www.pogodaiklimat.ru

Погода и климат >> Архив погоды >> Франция >> Шартр


ПОГОДА в Шартре

  • Прогноз погоды в Шартре
  • Монитор погоды в Шартре

АРХИВ ПОГОДЫ в Шартре

Время (UTC), дата Ветер
(напр.,м/с)
 
Видим.   Явления Облачность Т
(С)
Тd
(С)
f
(%)
Тe
(С)
Тes
(С)
Комфортность P
(гПа)
Po
(гПа)
Тmin
(С)
Tmax
(С)
R
(мм)
R24
(мм)
S
(см)
19 10.06 СЗ 1 19 км 10/10 930 м
[]
+12.9 +9.3 79 +13 +13 1013.4 994.9 0.0
20 10.06 З 1 20 км н/о +11.8 +9.4 85 +12 +12 1013.6 995.1
21 10.06 З 1
{4}
20 км 10/0
[]
+11.2 +8.6 84 +11 +11 1013.9 995.3 0.0 0
22 10.06 ЮЗ 1 20 км н/о +10.1 +8.4 89 +11 +11 1013.8 995.1
23 10.06 З 1 20 км н/о +9.6 +8.4 92 +10 +10 1013.7 995.0
00 11.06 З 1
{3}
20 км н/о +9.0 +8.1 94 +9 +9 1013.2 994.5 0
01 11.06 З 1 20 км н/о +8.4 +7.6 95 +9 +9 1012.9 994.1
02 11.06 ЮВ 1 18 км н/о +6.8 +6.1 95 +7 +7 1012.9 994.0
03 11.06 штиль 0
{2}
8000 м н/о +6.6 +6.5 99 +5 +5 1012.5 993.6 0
04 11.06 ЮВ 1 1500 м дымка н/о +5.2 +4.8 97 +5 +5 1012.6 993.6
05 11.06 ЮВ 1 12 км н/о +6.3 +6.2 99 +6 +6 1012.2 993.3
06 11.06 Ю 1
{2}
400 м туман ?/? +6.8 +6.7 99 +7 +7 1012.1 993.3 +5.0 +14.3 0.2 0
07 11.06 ЮВ 1 8000 м 10/10 60 м
[]
+9.2 +8.7 97 +9 +9 1011.9 993.2
08 11.06 Ю 1 18 км 9/9 90 м
[]
+10.9 +9.8 93 +11 +12 1012.0 993.4
09 11.06 ЮВ 1
{4}
19 км 9/9 300 м
[]
+12.7 +9.5 81 +13 +14 1011.8 993.4 0
10 11.06 ЮВ 2 20 км 10/10 480 м
[]
+13.5 +9.5 77 +13 +13 1011.9 993.5
11 11.06 ЮВ 1 20 км н/о +15.1 +8.3 64 +16 +16 1011.8 993.5
12 11.06 ЮВ 1
{6}
20 км 10/10 600 м
[]
+16.5 +8.7 60 +17 +27 1011.3 993.1 0
13 11.06 ЮВ 1 20 км н/о +16.6 +7.2 54 +18 +18 1010.9 992.7
14 11.06 ЮВ 2 20 км 10/3 1200 м
[]
+15.7 +7.2 57 +16 +22 1011.0 992.7
15 11.06 Ю 2
{8}
17 км слаб. дождь 10/10 600 м
[]
+13.4 +9.1 75 +13 +18 1011.6 993.2 0.0 0
16 11.06 Ю 2 19 км 10/1 1470 м
[]
+12.3 +10.5 89 +12 +15 1011.6 993.1 1
17 11.06 ЮЗ 1 20 км 9/4 270 м
[]
+12.5 +10.0 85 +12 +14 1011.1 992.7 0.2
18 11.06 В 1
{2}
20 км 10/10 300 м
[]
+13.1 +10.6 85 +14 +15 1011.1 992.7 +6.8 +17.3 2 0
19 11.06 СВ 1 20 км н/о +12.5 +10.9 90 +13 +13 1010.9 992.5
20 11.06 СВ 1 20 км 9/3 300 м
[]
+12.1 +11.0 93 +13 +13 1010.9 992.4
21 11.06 В 1
{3}
20 км 9/9 1000 м
[]
+11.2 +10.3 94 +12 +12 1010.8 992.3 0
22 11.06 В 1 19 км 10/9 1000 м
[]
+10.7 +10.1 96 +11 +11 1010.7 992.2
23 11.06 В 1 19 км н/о +10.0 +9.4 96 +10 +10 1010.8 992.2
00 12.06 В 1
{3}
20 км н/о +9.2 +8.4 95 +8 +8 1010.2 991.6 0
01 12.06 В 1 15 км н/о +7.9 +7.1 95 +8 +8 1010.0 991.3
02 12.06 ЮВ 1 200 м туман ?/? +8.8 +8.7 99 +9 +9 1009.3 990.6
03 12.06 ЮВ 1
{3}
200 м туман ?/? +8.0 +7.9 99 +8 +8 1009.1 990.4 0
04 12.06 ЮВ 1 300 м туман ?/? +7.9 +7.9 100 +8 +8 1009.5 990.8
05 12.06 Ю 1 11 км 10/10 90 м
[]
+9.0 +9.0 100 +9 +9 1009.5 990.9
06 12.06 Ю 1
{4}
20 км 10/10 200 м
[]
+9.3 +8.5 95 +9 +9 1009.6 991.0 +7.4 +13.0 0
07 12.06 Ю 1 20 км 10/10 420 м
[]
+10.6 +9.4 92 +10 +10 1009.6 991.1
08 12.06 Ю 1 20 км н/о +11.7 +9.1 84 +12 +12 1009.7 991.2
09 12.06 ЮВ 2
{4}
20 км 10/10 300 м
[]
+12.2 +9.4 83 +12 +12 1009.3 990.9 0
10 12.06 ЮВ 2 20 км 10/10 480 м
[]
+13.7 +10.1 79 +13 +13 1009.0 990.7
11 12.06 ЮВ 2 20 км 9/9 660 м
[]
+13.8 +10.0 78 +13 +15 1008.7 990.4
12 12.06 ЮВ 2
{8}
17 км 10/10 600 м
[]
+14.2 +10.6 79 +14 +15 1008.4 990.1 0.2 0
13 12.06 Ю 2 20 км н/о +15.4 +12.3 82 +16 +16 1008.1 989.9 0.8
14 12.06 ЮЗ 3 2800 м сильн. дождь 10/8 700 м
[]
+12.2 +9.8 85 +11 +12 1009.0 990.6 3
15 12.06 Ю 2
{10}
20 км 9/0 2000 м
[]
+13.3 +11.2 87 +13 +14 1008.7 990.4 6 0
16 12.06 Ю 2 20 км 10/9 570 м
[]
+14.2 +11.4 83 +14 +14 1008.4 990.1
17 12.06 ЮЗ 2 20 км 10/5 800 м
[]
+15.4 +11.4 77 +16 +17 1008.4 990.2 0.0
18 12.06 ЮЗ 2
{8}
20 км н/о +14.9 +10.3 74 +15 +15 1008.7 990.5 +9.3 +16.0 0.0 0
19 12.06 ЮЗ 2 20 км 10/1 1110 м
[]
+13.5 +9.7 78 +13 +13 1009.4 991.1
20 12.06 ЮЗ 2 20 км н/о +12.3 +10.0 86 +12 +12 1010.2 991.8
21 12.06 ЮЗ 2
{7}
20 км 8/8 600 м
[]
+11.7 +10.3 91 +11 +11 1010.9 992.4 0
22 12.06 ЮЗ 2 20 км 8/8
[]
+10.8 +9.6 92 +10 +10 1011.1 992.5
23 12.06 ЮЗ 1 20 км н/о +10.1 +9.0 93 +10 +10 1011.3 992.7
00 13.06 ЮЗ 3
{6}
20 км н/о +9.7 +8.8 94 +8 +8 1011.6 993.0 0
01 13.06 ЮЗ 2 20 км н/о +9.4 +8.6 95 +8 +8 1011.5 992.8
02 13.06 Ю 2 17 км н/о +9.3 +8.8 97 +8 +8 1011.7 993.0
03 13.06 Ю 2
{7}
17 км 9/9 100 м
[]
+9.5 +9.0 97 +8 +8 1011.5 992.9 0
04 13.06 Ю 1 13 км 10/10 150 м
[]
+9.5 +9.0 97 +9 +9 1011.6 993.0
05 13.06 Ю 2 16 км 9/6 150 м
[]
+9.8 +9.3 97 +8 +9 1011.8 993.2
06 13.06 Ю 2
{6}
12 км 10/10 100 м
[]
+10.2 +9.6 96 +9 +9 1011.8 993.2 +9.1 +15.0 0
07 13.06 Ю 2 18 км слаб. дождь 10/10 180 м
[]
+10.9 +10.3 96 +10 +10 1012.0 993.4 0.4
08 13.06 ЮЗ 3 19 км 10/10 300 м
[]
+12.9 +10.8 87 +12 +12 1011.7 993.3 0.0
09 13.06 ЮЗ 2
{11}
20 км 9/9 300 м
[]
+13.8 +10.6 81 +13 +14 1012.0 993.6 0.4 0
10 13.06 Ю 3 20 км 8/6 700 м
[]
+15.5 +10.0 70 +15 +19 1011.9 993.6
11 13.06 ЮЗ 3 20 км н/о +16.3 +10.4 68 +16 +16 1011.9 993.7
12 13.06 ЮЗ 3
{12}
20 км 8/8 600 м
[]
+16.9 +10.5 66 +17 +25 1011.8 993.6 0
13 13.06 ЮЗ 3 20 км 9/3 1080 м
[]
+18.7 +9.7 56 +20 +26 1011.4 993.3
14 13.06 ЮЗ 2 20 км н/о +19.9 +11.1 57 +22 +22 комфорт 1010.8 992.8
15 13.06 ЮЗ 3
{9}
20 км 9/9 1000 м
[]
+19.2 +10.2 56 +20 +24 1010.8 992.8 0
16 13.06 Ю 3 20 км н/о +19.8 +9.9 53 +21 +21 комфорт 1010.8 992.8
17 13.06 ЮЗ 3 20 км н/о +20.3 +9.5 50 +22 +22 комфорт 1010.7 992.7
18 13.06 ЮЗ 3
{10}
20 км н/о +19.2 +9.1 52 +20 +20 1011.0 993.0 +10.2 +20.8 0
19 13.06 З 1 20 км н/о +18.7 +9.5 55 +20 +20 1011.4 993.3
20 13.06 ЮЗ 1 20 км н/о +15.9 +9.3 65 +17 +17 1011.9 993.7
21 13.06 Ю 1
{3}
20 км н/о +12.5 +9.3 81 +13 +13 1012.7 994.2 0
22 13.06 ЮВ 1 20 км н/о +11.8 +10.2 90 +12 +12 1012.5 994.0
23 13.06 З 1 20 км н/о +10.9 +9.3 90 +11 +11 1012.8 994.2
00 14.06 З 1
{2}
20 км 10/0
[]
+11.5 +10.4 93 +12 +12 1012.5 994.0 0
01 14.06 штиль 0 20 км 10/10
[]
+12.0 +10.2 89 +11 +11 1012.6 994.1
02 14.06 ЮЗ 1 20 км 10/10 1380 м
[]
+12.2 +10.4 89 +13 +13 1012.8 994.3
03 14.06 Ю 1
{3}
20 км 10/0 2000 м
[]
+11.8 +10.2 90 +12 +12 1012.9 994.4 0
04 14.06 штиль 0 18 км 10/3 930 м
[]
+11.1 +9.8 92 +10 +10 1013.1 994.5
05 14.06 СЗ 1 20 км н/о +10.9 +10.0 94 +11 +11 1013.0 994.4
06 14.06 З 1
{3}
20 км н/о +12.9 +9.7 81 +14 +14 1013.4 994.9 +10.6 +19.3 0
07 14.06 З 1 20 км н/о +15.3 +9.9 70 +17 +17 1013.6 995.3
08 14.06 ЮВ 1 19 км н/о +17.4 +9.3 59 +19 +19 1013.8 995.6
09 14.06 Ю 2
{6}
20 км н/о +18.6 +10.2 58 +20 +20 1014.0 995.9 0
10 14.06 Ю 2 20 км 10/1 1050 м
[]
+18.2 +10.8 62 +19 +27 1014.3 996.2
11 14.06 ЮЗ 2 19 км 10/10 1500 м
[]
+18.8 +11.1 61 +20 +20 1014.3 996.2
12 14.06 Ю 1
{5}
19 км 9/9 1500 м
[]
+20.0 +11.7 59 +23 +25 комфорт 1013.9 995.9 0
13 14.06 Ю 1 19 км н/о +20.8 +11.1 54 +24 +24 комфорт 1013.1 995.1
14 14.06 Ю 1 20 км 9/3 1110 м
[]
+20.5 +11.7 57 +24 +30 комфорт 1012.6 994.6
15 14.06 В 1
{6}
20 км н/о +21.1 +11.7 55 +23 +23 комфорт 1012.0 994.1 0
16 14.06 ЮЗ 1 20 км 8/5 1200 м
[]
+22.0 +11.7 52 +24 +27 комфорт 1011.4 993.6
17 14.06 СЗ 1 19 км 8/8 1300 м
[]
+21.5 +12.9 58 +24 +25 комфорт 1011.5 993.6
18 14.06 В 1
{4}
20 км 10/10 1000 м
[]
+20.1 +12.6 62 +23 +23 комфорт 1011.6 993.6 +13.0 +22.4 0
19 14.06 С 1 20 км 9/9
[]
+19.3 +12.8 66 +22 +22 комфорт 1011.8 993.8
20 14.06 С 1 20 км 9/9 2000 м
[]
+18.4 +12.6 69 +20 +20 1011.7 993.6
21 14.06 СЗ 1
{3}
20 км 10/10 1500 м
[]
+17.4 +12.7 74 +19 +19 1012.1 994.0 0
22 14.06 СЗ 1 20 км 10/10 2000 м
[]
+16.9 +12.2 74 +18 +18 1012.0 993.8
23 14.06 З 1 20 км 10/10 1500 м
[]
+16.7 +11.2 70 +18 +18 1012.5 994.3
00 15.06 З 1
{3}
20 км 10/0 2000 м
[]
+16.3 +11.0 71 +17 +17 1012.5 994.3 0
01 15.06 З 1 20 км н/о +14.9 +11.1 78 +16 +16 1012.8 994.5
02 15.06 ЮЗ 1 20 км 10/10 1500 м
[]
+14.0 +10.6 80 +14 +14 1013.3 994.9
03 15.06 З 1
{4}
20 км н/о +13.5 +9.9 79 +14 +14 1013.7 995.3 0
04 15.06 З 1 20 км н/о +12.3 +9.5 83 +12 +12 1014.1 995.6
05 15.06 З 1 20 км н/о +11.9 +9.3 84 +12 +12 1014.5 996.0
06 15.06 З 2
{5}
20 км н/о +13.4 +10.2 81 +13 +13 1014.9 996.4 +11.9 +20.1 0
07 15.06 З 1 20 км н/о +15.3 +10.7 74 +16 +16 1015.5 997.2
08 15.06 З 2 19 км н/о +16.6 +9.0 61 +17 +17 1016.2 997.9
09 15.06 З 2
{8}
20 км н/о +16.9 +9.1 60 +17 +17 1016.5 998.2 0
10 15.06 ЮЗ 2 20 км н/о +16.9 +9.1 60 +17 +17 1017.0 998.7
11 15.06 З 2 20 км н/о +18.0 +8.8 55 +19 +19 1017.1 998.9
12 15.06 Ю 2
{8}
19 км 9/9 1000 м
[]
+19.8 +9.9 53 +22 +24 комфорт 1017.0 998.9 0
13 15.06 ЮЗ 2 20 км н/о +20.2 +9.1 49 +22 +22 комфорт 1016.8 998.7
14 15.06 ЮЗ 3 20 км 9/4 1380 м
[]
+19.2 +8.8 51 +20 +24 1017.0 998.9
15 15.06 ЮЗ 3
{10}
20 км 9/9 1000 м
[]
+19.3 +8.9 51 +20 +22 1017.1 999.0 0
16 15.06 ЮЗ 3 20 км н/о +19.8 +9.1 50 +21 +21 комфорт 1017.1 999.0
17 15.06 З 2 19 км 10/10 2000 м
[]
+19.1 +9.3 53 +21 +21 комфорт 1017.2 999.1
18 15.06 ЮЗ 2
{10}
20 км 9/0 2000 м
[]
+19.5 +9.4 52 +21 +21 комфорт 1017.5 999.4 +13.3 +20.8 0
19 15.06 ЮЗ 2 20 км н/о +18.3 +8.8 54 +19 +19 1017.9 999.7
20 15.06 ЮЗ 2 20 км н/о +16.9 +9.8 63 +17 +17 1018.3 1000.0
21 15.06 З 1
{7}
20 км 9/0 2000 м
[]
+16.0 +10.1 68 +17 +17 1019.0 1000.6 0
22 15.06 ЮЗ 2 20 км 9/9 870 м
[]
+15.1 +10.7 75 +15 +15 1019.5 1001.1
23 15.06 ЮЗ 2 20 км 9/9 540 м
[]
+14.3 +11.1 81 +14 +14 1019.7 1001.2
00 16.06 ЮЗ 2
{7}
20 км н/о +13.6 +11.1 85 +13 +13 1019.9 1001.4 0
01 16.06 Ю 2 20 км н/о +12.6 +10.8 89 +12 +12 1019.8 1001.2
02 16.06 ЮЗ 1 20 км 9/9 1110 м
[]
+12.8 +11.4 91 +13 +13 1020.1 1001.5
03 16.06 ЮЗ 1
{5}
20 км 10/10 600 м
[]
+13.2 +11.4 89 +13 +13 1020.5 1001.9 0
04 16.06 ЮЗ 2 19 км 10/10 630 м
[]
+12.9 +11.3 90 +12 +12 1020.6 1002.0
05 16.06 ЮЗ 2 19 км 10/10 1380 м
[]
+13.1 +11.5 90 +13 +13 1020.8 1002.2
06 16.06 ЮЗ 2
{6}
19 км 10/10 300 м
[]
+14.4 +12.1 86 +14 +14 1021.3 1002.8 +12.4 +19.7 0
07 16.06 ЮЗ 2 19 км 10/10 400 м
[]
+16.4 +12.2 76 +17 +17 1021.5 1003.1
08 16.06 ЮЗ 2 19 км 10/10 540 м
[]
+17.1 +12.0 72 +17 +17 1021.6 1003.3
09 16.06 ЮЗ 2
{7}
19 км 10/10 600 м
[]
+17.1 +11.8 71 +18 +18 1021.7 1003.4 0
10 16.06 З 2 20 км 10/10 630 м
[]
+16.5 +11.6 73 +17 +17 1022.2 1003.8
11 16.06 ЮЗ 2 20 км 10/10 800 м
[]
+18.2 +11.0 63 +19 +19 1022.0 1003.7
12 16.06 ЮЗ 2
{8}
20 км 10/10 600 м
[]
+19.3 +11.8 62 +21 +23 комфорт 1021.6 1003.4 0
13 16.06 ЮЗ 2 19 км 10/9 1050 м
[]
+20.5 +11.9 58 +23 +24 комфорт 1021.3 1003.2
14 16.06 Ю 2 20 км 9/4 1200 м
[]
+21.0 +11.3 54 +24 +30 комфорт 1021.3 1003.2
15 16.06 ЮЗ 2
{6}
19 км 10/10 1000 м
[]
+20.9 +11.0 53 +24 +28 комфорт 1021.0 1002.9 0
16 16.06 ЮЗ 2 20 км 9/4 1320 м
[]
+20.9 +11.0 53 +24 +26 комфорт 1020.8 1002.7
17 16.06 ЮЗ 2 20 км 9/1 1260 м
[]
+21.5 +11.8 54 +24 +26 комфорт 1020.6 1002.6
18 16.06 ЮЗ 1
{5}
20 км н/о +21.4 +10.8 51 +23 +23 комфорт 1020.5 1002.4 +14.5 +21.8 0
19 16.06 ЮЗ 1 20 км н/о +20.1 +11.0 56 +23 +23 комфорт 1020.4 1002.3
20 16.06 Ю 1 5000 м н/о +16.4 +11.1 71 +18 +18 1020.7 1002.3
21 16.06 ЮВ 1
{2}
20 км н/о +13.9 +10.7 81 +15 +15 1021.1 1002.6 0
22 16.06 ЮЗ 1 20 км н/о +12.9 +10.8 87 +14 +14 1021.2 1002.6
23 16.06 штиль 0 20 км н/о +12.1 +10.2 88 +12 +12 1021.0 1002.4
00 17.06 штиль 0
{1}
20 км н/о +11.3 +9.7 90 +11 +11 1020.8 1002.1 0
01 17.06 штиль 0 20 км н/о +10.9 +9.7 92 +10 +10 1020.7 1002.0
02 17.06 штиль 0 20 км н/о +10.1 +9.0 93 +9 +9 1020.5 1001.7
03 17.06 штиль 0
{1}
19 км н/о +9.6 +8.7 94 +9 +9 1020.2 1001.4 0
04 17.06 штиль 0 19 км н/о +8.9 +7.8 93 +8 +8 1020.3 1001.4
05 17.06 штиль 0 19 км н/о +11.4 +11.2 99 +11 +11 1020.4 1001.7
06 17.06 штиль 0
{1}
19 км н/о +16.1 +11.9 76 +16 +16 1020.5 1002.1 +8.7 +21.4 0
07 17.06 В 1 19 км н/о +19.1 +12.1 64 +22 +22 комфорт 1020.1 1001.9
08 17.06 ЮВ 1 20 км н/о +20.4 +12.6 61 +24 +24 комфорт 1019.7 1001.6
09 17.06 ЮВ 1
{4}
20 км н/о +21.7 +13.1 58 +24 +24 комфорт 1019.2 1001.2 0
10 17.06 ЮВ 1 19 км н/о +22.8 +13.3 55 +26 +26 жарко 1018.8 1000.9
11 17.06 ЮВ 2 19 км 9/6 1350 м
[]
+23.5 +12.8 51 +26 +30 жарко 1018.4 1000.5
12 17.06 ЮВ 1
{5}
19 км 8/8 1000 м
[]
+24.0 +12.3 48 +26 +33 жарко 1018.0 1000.2 0
13 17.06 Ю 1 20 км н/о +24.6 +13.2 49 +27 +27 жарко 1017.6 999.8
14 17.06 В 2 19 км н/о +24.7 +12.0 45 +26 +26 жарко 1017.1 999.3
15 17.06 Ю 1
{5}
20 км 9/9 1500 м
[]
+24.6 +11.5 44 +26 +27 жарко 1016.7 998.9 0
16 17.06 В 2
{4}
20 км 9/9 1500 м
[]
+24.8 +13.4 49 +27 +28 жарко 1016.3 998.5
17 17.06 ЮВ 1 20 км н/о +24.1 +12.4 48 +26 +26 жарко 1015.9 998.1
18 17.06 ЮВ 1
{4}
20 км н/о +24.1 +13.6 52 +26 +26 жарко 1015.7 997.9 +16.1 +26.0 0

 

Местоположение метеостанции Шартр (Франция): широта 48.47 долгота 1.50 высота над уровнем моря 156 м.

В архиве по умолчанию представлена погода в Шартре за последнюю неделю. Архивные данные за месяц целиком и за предыдущие месяцы, начиная с января 2011 года, Вы можете получить, выбрав интересующий диапазон дат из раскрывающегося списка и нажав кнопку "Ввод!".


*Определитесь, кто Вы:
робот инопланетянин человек

Внимание! Время в таблицах - всемирное. Для получения местного времени необходимо прибавить поправку, которая равна 1 ч.

Смотрите также архив погоды в соседних городах и на ближайших метеорологических станциях:

Погода в Тусю-ле-Нобле (Франция) (44 км)
Погода в Шатодёне (Франция) (45 км)
Погода в Трапе (Франция) (50 км)
Погода в Орлеане (Франция) (58 км)
Погода в Велизи-Вилакубле (Франция) (61 км)
Погода в Эврё (Франция) (64 км)
Погода в Париж Орли аэропорту (Франция) (70 км)
Погода в Париже (Франция) (72 км)
Погода в Кормее (Франция) (78 км)
Погода в Ле-Бурже (Франция) (88 км)

Пояснения к столбцам:

Ветер - указаны скорость ветра в м/с - средняя за 10 мин, порывы в срок и между сроками (в фигурных скобках) и направление, откуда дует ветер: С - северный, СВ - северо-восточный, В - восточный, ЮВ - юго-восточный, Ю - южный, ЮЗ - юго-западный, З - западный, СЗ - северо-западный.
Видимость - горизонтальная дальность видимости в метрах или километрах. При видимости от 1 до 10 км при отсутствии осадков обычно наблюдается дымка, при ухудшении видимости до 1 км и менее - туман. В сухую погоду видимость может ухудшаться дымом, пылью или мглою.
Явления - указаны атмосферные явления, наблюдавшиеся в срок или в последний час перед сроком; фигурными скобками обозначены явления, наблюдавшиеся между сроками (за 1-3 часа до срока); квадратными скобками обозначены град или гололедные отложения с указанием их диаметра в мм.
Облачность - указаны через наклонную черту общая и нижняя облачность в баллах и высота нижней границы облаков в метрах; квадратными скобками обозначены формы облаков: Ci - перистые, Cs - перисто-слоистые, Cc - перисто-кучевые, Ac - высококучевые, As - высокослоистые, Sc - слоисто-кучевые, Ns - слоисто-дождевые, Cu - кучевые, Cb - кучево-дождевые. Подробнее классификацию облаков см. в Атласе облаков (PDF).
T - Температура воздуха - температура, измеренная на высоте 2 м над землей.
Td - Температура точки росы - температура, при понижении до которой содержащийся в воздухе водяной пар достигнет насыщения.
f - Относительная влажность воздуха - влажноcть воздуха, измеренная на высоте 2 м над землей.
Te - Эффективная температура - температура, которую ощущает одетый по сезону человек в тени. Характеристика душности погоды. При расчете учитывается влияние влажности воздуха и скорости ветра на теплоощущения человека.
Tes - Эффективная температура на солнце - температура, которую ощущает человек, с поправкой на солнечный нагрев. Характеристика знойности погоды. Зависит от высоты солнца над горизонтом, облачности и скорости ветра. Ночью, в пасмурную погоду, а также при ветре 12 м/с и более поправка равна нулю.
P - Атмосферное давление - приведенное к уровню моря атмосферное давление.
Po - Атмосферное давление - измеренное на уровне метеостанции атмосферное давление.
Tmin - Минимальная температура - минимум температуры воздуха на высоте 2 м над землей.
Tmax - Максимальная температура - максимум температуры воздуха на высоте 2 м над землей.
R - Количество осадков - Количество выпавших осадков за период времени, мм. При наведении курсора мыши на число - период времени, за который выпало указанное количество осадков.
R24 - Количество осадков - Количество выпавших осадков за 24 часа, мм.
S - Снежный покров - Высота снежного покрова, см. При наведении курсора мыши на число - состояние снежного покрова и степень покрытия местности в баллах.